Date String (YYYY-MM-DD hh:mm:ss) UTC,Instrument flags,absolute air pressure of the measurement (hPa),sample flow rate (lpm),inlet stack bypass flow (lpm),air temperature of the measurement (°C),ambient temperature measured by the external sensor (°C),aerosol sample conditioner tube jacket temperature (°C),OPC LED temperature (°C),internal box temperature (°C),relative humidity of the measurement (%),span deviation,mass concentration of particles derived from Lorenz-Mie calculation of OPC scattering (μg/m³),mass concentration of particles derived from Lorenz-Mie calculation of OPC scattering (μg/m³),mass concentration of particles derived from Lorenz-Mie calculation of OPC scattering (μg/m³)
DateTimeUTC,F1_M11,P_M11,Q1_M11,Q2_M11,T1_M11,T2_M11,T3_M11,T4_M11,T5_M11,U1_M11,ZSPAN_M11,X0_M11,X2_M11,X1_M11
2023-07-15 13:00:00,SystemResetWarning,0836.6,5.00,000.00,029.9,028.7,000.0,038.4,031.5,31.6,-001.4,0013.47,0006.45,0005.61
2023-07-15 13:01:00,SystemResetWarning,0836.7,5.00,000.00,029.9,028.7,000.0,038.4,031.5,31.4,-001.6,0012.56,0006.50,0005.62
2023-07-15 13:02:00,SystemResetWarning,0836.6,4.99,000.00,030.0,028.8,000.0,038.4,031.5,31.3,-001.8,0012.35,0006.52,0005.64
2023-07-15 13:03:00,SystemResetWarning,0836.6,5.00,000.00,030.0,028.8,000.0,038.4,031.6,31.8,-001.1,0012.34,0006.59,0005.66
2023-07-15 13:04:00,SystemResetWarning,0836.6,4.99,000.00,030.0,028.8,000.0,038.4,031.6,31.5,-000.4,0012.18,0006.62,0005.67
2023-07-15 13:05:00,SystemResetWarning,0836.6,4.99,000.00,030.0,027.6,000.0,038.4,031.4,31.6,-000.1,0011.95,0006.62,0005.66
2023-07-15 13:06:00,SystemResetWarning,0836.6,5.00,000.00,029.9,026.2,000.0,038.3,031.2,32.2,-000.0,0012.52,0006.62,0005.65
2023-07-15 13:07:00,SystemResetWarning,0836.6,5.00,000.00,029.8,026.0,000.0,038.2,031.0,32.3,-000.0,0012.54,0006.63,0005.63
2023-07-15 13:08:00,SystemResetWarning,0836.6,5.01,000.00,029.7,026.2,000.0,038.3,030.9,32.6,-000.1,0013.02,0006.64,0005.64
2023-07-15 13:09:00,SystemResetWarning,0836.6,4.99,000.00,029.7,026.6,000.0,038.3,031.0,32.3,-000.3,0013.11,0006.57,0005.63
2023-07-15 13:10:00,SystemResetWarning,0836.6,4.99,000.00,029.7,026.9,000.0,038.3,031.0,32.1,-000.5,0013.78,0006.52,0005.63
2023-07-15 13:11:00,SystemResetWarning,0836.6,5.00,000.00,029.7,027.2,000.0,038.3,031.1,32.5,-000.2,0014.31,0006.54,0005.62
2023-07-15 13:12:00,SystemResetWarning,0836.6,5.01,000.00,029.7,027.5,000.0,038.3,031.1,32.6,-000.1,0014.56,0006.48,0005.60
2023-07-15 13:13:00,SystemResetWarning,0836.6,5.01,000.00,029.7,027.7,000.0,038.3,031.2,32.4,-000.1,0014.70,0006.48,0005.58
2023-07-15 13:14:00,SystemResetWarning,0836.6,5.00,000.00,029.7,027.9,000.0,038.3,031.2,32.1,-000.3,0014.66,0006.42,0005.55
2023-07-15 13:15:00,SystemResetWarning,0836.6,4.99,000.00,029.7,028.0,000.0,038.3,031.3,32.6,-000.8,0014.52,0006.39,0005.52
2023-07-15 13:16:00,SystemResetWarning,0836.6,5.00,000.00,029.7,028.2,000.0,038.3,031.3,32.3,-001.2,0014.06,0006.33,0005.50
2023-07-15 13:17:00,SystemResetWarning,0836.6,5.00,000.00,029.7,028.3,000.0,038.3,031.3,32.2,-001.2,0013.39,0006.30,0005.50
2023-07-15 13:18:00,SystemResetWarning,0836.6,5.01,000.00,029.8,028.3,000.0,038.3,031.3,31.8,-000.8,0013.25,0006.27,0005.49
2023-07-15 13:19:00,SystemResetWarning,0836.6,5.00,000.00,029.8,028.4,000.0,038.3,031.4,31.9,-000.3,0013.12,0006.22,0005.46
2023-07-15 13:20:00,SystemResetWarning,0836.6,5.01,000.00,029.8,028.5,000.0,038.3,031.4,32.1,-000.0,0012.86,0006.24,0005.44
2023-07-15 13:21:00,SystemResetWarning,0836.7,5.00,000.00,029.8,028.5,000.0,038.3,031.4,31.3,0000.0,0012.51,0006.24,0005.42
2023-07-15 13:22:00,SystemResetWarning,0836.7,5.00,000.00,029.8,028.6,000.0,038.3,031.4,31.5,-000.1,0012.34,0006.21,0005.40
2023-07-15 13:23:00,SystemResetWarning,0836.7,5.00,000.00,029.9,028.6,000.0,038.4,031.5,31.6,-000.4,0011.89,0006.17,0005.38
2023-07-15 13:24:00,SystemResetWarning,0836.7,5.00,000.00,029.9,028.7,000.0,038.4,031.5,31.9,-000.1,0012.25,0006.15,0005.37
2023-07-15 13:25:00,SystemResetWarning,0836.8,4.99,000.00,029.9,028.6,000.0,038.4,031.5,32.5,-000.1,0012.39,0006.11,0005.35
2023-07-15 13:26:00,SystemResetWarning,0836.7,4.99,000.00,029.9,027.2,000.0,038.3,031.4,32.3,0000.1,0012.42,0006.09,0005.35
2023-07-15 13:27:00,SystemResetWarning,0836.7,5.01,000.00,029.8,026.1,000.0,038.2,031.2,32.7,0000.8,0012.47,0006.10,0005.33
2023-07-15 13:28:00,SystemResetWarning,0836.7,5.00,000.00,029.8,026.1,000.0,038.1,030.9,33.1,0000.8,0012.61,0006.04,0005.30
2023-07-15 13:29:00,SystemResetWarning,0836.7,5.02,000.00,029.7,026.3,000.0,038.2,030.9,32.3,0000.2,0012.75,0006.01,0005.28
2023-07-15 13:30:00,SystemResetWarning,0836.7,4.99,000.00,029.6,026.7,000.0,038.2,030.9,32.9,0000.0,0012.83,0005.98,0005.26
2023-07-15 13:31:00,SystemResetWarning,0836.7,5.00,000.00,029.6,027.0,000.0,038.2,031.0,32.2,0000.1,0013.09,0005.96,0005.26
2023-07-15 13:32:00,SystemResetWarning,0836.8,5.01,000.00,029.6,027.3,000.0,038.2,031.1,32.2,0000.4,0012.69,0005.93,0005.26
2023-07-15 13:33:00,SystemResetWarning,0836.7,4.99,000.00,029.6,027.5,000.0,038.2,031.1,32.9,0000.2,0012.32,0005.92,0005.26
2023-07-15 13:34:00,SystemResetWarning,0836.7,4.99,000.00,029.6,027.7,000.0,038.2,031.2,32.8,-000.2,0011.99,0005.90,0005.26
2023-07-15 13:35:00,SystemResetWarning,0836.7,5.00,000.00,029.7,027.9,000.0,038.2,031.2,32.3,-000.5,0011.50,0005.87,0005.25
2023-07-15 13:36:00,SystemResetWarning,0836.7,5.00,000.00,029.7,028.1,000.0,038.2,031.2,32.1,-000.7,0011.20,0005.87,0005.26
2023-07-15 13:37:00,SystemResetWarning,0836.7,5.00,000.00,029.7,028.2,000.0,038.2,031.3,31.7,-000.2,0010.93,0005.86,0005.25
2023-07-15 13:38:00,SystemResetWarning,0836.7,5.00,000.00,029.7,028.3,000.0,038.2,031.3,31.6,-001.0,0010.90,0005.84,0005.25
2023-07-15 13:39:00,SystemResetWarning,0836.8,5.00,000.00,029.7,028.4,000.0,038.2,031.3,31.7,-000.5,0010.58,0005.84,0005.26
2023-07-15 13:40:00,SystemResetWarning,0836.8,5.01,000.00,029.8,028.4,000.0,038.3,031.4,31.6,0000.0,0010.54,0005.84,0005.26
2023-07-15 13:41:00,SystemResetWarning,0836.8,5.00,000.00,029.8,028.5,000.0,038.3,031.4,31.5,0000.0,0009.96,0005.84,0005.24
2023-07-15 13:42:00,SystemResetWarning,0836.8,4.99,000.00,029.8,028.6,000.0,038.3,031.4,31.2,0000.0,0009.56,0005.82,0005.22
2023-07-15 13:43:00,SystemResetWarning,0836.8,4.99,000.00,029.8,028.6,000.0,038.3,031.4,31.9,0000.0,0009.52,0005.79,0005.19
2023-07-15 13:44:00,SystemResetWarning,0836.8,5.01,000.00,029.9,028.6,000.0,038.3,031.5,32.2,0000.0,0009.41,0005.72,0005.15
2023-07-15 13:45:00,SystemResetWarning,0836.8,4.99,000.00,029.9,027.5,000.0,038.2,031.4,31.6,0000.0,0009.52,0005.71,0005.11
2023-07-15 13:46:00,SystemResetWarning,0836.8,5.00,000.00,029.8,025.8,000.0,038.1,031.0,32.1,0000.0,0009.53,0005.70,0005.07
2023-07-15 13:47:00,SystemResetWarning,0836.7,5.01,000.00,029.7,025.1,000.0,038.0,030.8,32.2,0000.0,0009.58,0005.67,0005.02
2023-07-15 13:48:00,SystemResetWarning,0836.7,5.01,000.00,029.5,025.2,000.0,038.0,030.6,32.1,0000.0,0010.29,0005.62,0004.99
2023-07-15 13:49:00,SystemResetWarning,0836.7,4.99,000.00,029.4,025.6,000.0,038.0,030.6,32.4,0000.0,0010.53,0005.56,0004.95
2023-07-15 13:50:00,SystemResetWarning,0836.8,5.00,000.00,029.4,026.1,000.0,038.0,030.7,32.2,0000.0,0010.58,0005.52,0004.90
2023-07-15 13:51:00,SystemResetWarning,0836.8,5.00,000.00,029.4,026.5,000.0,038.0,030.8,32.1,0000.0,0010.46,0005.49,0004.87
2023-07-15 13:52:00,SystemResetWarning,0836.8,5.01,000.00,029.4,026.9,000.0,038.0,030.8,32.0,0000.0,0010.23,0005.47,0004.84
2023-07-15 13:53:00,SystemResetWarning,0836.8,5.00,000.00,029.4,027.2,000.0,038.0,030.9,31.8,-000.6,0010.23,0005.44,0004.81
2023-07-15 13:54:00,SystemResetWarning,0836.8,4.99,000.00,029.4,027.4,000.0,038.0,030.9,32.5,-000.8,0011.05,0005.43,0004.78
2023-07-15 13:55:00,SystemResetWarning,0836.7,5.00,000.00,029.4,027.6,000.0,038.0,031.0,32.6,-000.6,0011.09,0005.44,0004.76
2023-07-15 13:56:00,SystemResetWarning,0836.8,5.00,000.00,029.5,027.8,000.0,038.0,031.0,31.9,-001.1,0010.94,0005.41,0004.75
2023-07-15 13:57:00,SystemResetWarning,0836.8,5.01,000.00,029.5,027.9,000.0,038.0,031.1,32.2,-002.0,0010.85,0005.37,0004.74
2023-07-15 13:58:00,SystemResetWarning,0836.8,5.00,000.00,029.5,028.1,000.0,038.0,031.1,31.6,-001.9,0010.75,0005.33,0004.72
2023-07-15 13:59:00,SystemResetWarning,0836.8,5.00,000.00,029.5,028.2,000.0,038.1,031.1,31.5,-001.7,0009.89,0005.31,0004.70
